Location: Nairn
(57.5833°N, 3.8667°W)
Time: 00:06:32
(UTC+00:00)

N. Korean satellite - Pass Details

Date: 28 October 2020
Orbit: 453 x 503 km, 97.2° (Epoch: 04 December)

Event Time Altitude Azimuth Distance (km) Brightness Sun altitude
Rises 06:28:07 0° 12° (NNE) 2,497 10.2 -7.4°
Reaches altitude 10° 06:30:12 10° 8° (N) 1,613 9.2 -7.1°
Maximum altitude 06:33:35 56° 290° (WNW) 549 6.5 -6.7°
Drops below altitude 10° 06:36:56 10° 211° (SSW) 1,592 9.0 -6.2°
Sets 06:38:58 0° 207° (SSW) 2,461 10.0 -6.0°
